Address 0xce96abbd4512f9d1bd38adcca6c80f6ec90908d4 2

 
Txn Hash Method
Block
From
To
Value [Txn Fee]
0x8460c492bcd55a79c9615c42cb26bb365be51e31cabfed412da7a788d5a9b06a0x5866cc8e112009762021-09-24 18:42:2419 mins ago0xce96abbd4512f9d1bd38adcca6c80f6ec90908d4OUT 0x712e047aaa04725f8f6690207499906eb7bdb1eb0 BNB0.000283045
0x541a045d41c04ffebee9319b171d35cd72692fb0739a22945729032eeece52e60x5866cc8e111996702021-09-24 17:36:461 hr 25 mins ago0xce96abbd4512f9d1bd38adcca6c80f6ec90908d4OUT 0x712e047aaa04725f8f6690207499906eb7bdb1eb0 BNB0.000274085
0x3d06835a0769a28b0ad4cdffe89bdf734ee66352535f4458e4a8d4ddf09e2d6c0x5866cc8e111979622021-09-24 16:11:222 hrs 50 mins ago0xce96abbd4512f9d1bd38adcca6c80f6ec90908d4OUT 0x712e047aaa04725f8f6690207499906eb7bdb1eb0 BNB0.00027432
0x388f464bad6e1738932c23b691851855c4c9d6d55c51200f8e1ce50899e766170x5866cc8e111966802021-09-24 15:07:163 hrs 54 mins ago0xce96abbd4512f9d1bd38adcca6c80f6ec90908d4OUT 0x712e047aaa04725f8f6690207499906eb7bdb1eb0 BNB0.000355255443
0x50f369602d5cdcaf7b3aa212efc3ebdea49df53c3e1e34e0bed35826313dcd9f0x5866cc8e111955012021-09-24 14:08:184 hrs 53 mins ago0xce96abbd4512f9d1bd38adcca6c80f6ec90908d4OUT 0x712e047aaa04725f8f6690207499906eb7bdb1eb0 BNB0.000216565
0x3e31e3dce5c2c4a35a99f65f3e604b3da64972dbd1b3deab067f226bedea47e10x5866cc8e111954932021-09-24 14:07:544 hrs 54 mins ago0xce96abbd4512f9d1bd38adcca6c80f6ec90908d4OUT 0x712e047aaa04725f8f6690207499906eb7bdb1eb0 BNB0.00145319
0xf8fcf4ffa0f1d07f627ee8d5aa3284b932d8634c2d03cfb3b4fe21c6e51e60fb0x5866cc8e111951902021-09-24 13:52:435 hrs 9 mins ago0xce96abbd4512f9d1bd38adcca6c80f6ec90908d4OUT 0x712e047aaa04725f8f6690207499906eb7bdb1eb0 BNB0.00156111
0x463313c6880039e64b841e290a9827c4f679809710a3d33e95a9e149d6204c240x5866cc8e111950562021-09-24 13:46:015 hrs 16 mins ago0xce96abbd4512f9d1bd38adcca6c80f6ec90908d4OUT 0x712e047aaa04725f8f6690207499906eb7bdb1eb0 BNB0.000349895
0xbb7d7142ebbf28c2cf9ce5cbf85a036e2e72d6cd17a9441a89787333f770e0bc0x5866cc8e111949522021-09-24 13:40:485 hrs 21 mins ago0xce96abbd4512f9d1bd38adcca6c80f6ec90908d4OUT 0x712e047aaa04725f8f6690207499906eb7bdb1eb0 BNB0.000216395
0x931cf9941f3cdbf959bb44ec608b349df1402d8a6146bbe21d70ca6172f8e68f0x5866cc8e111945792021-09-24 13:21:525 hrs 40 mins ago0xce96abbd4512f9d1bd38adcca6c80f6ec90908d4OUT 0x712e047aaa04725f8f6690207499906eb7bdb1eb0 BNB0.000354435
0x95058b879bddca1fb195edc751d6e952004878a00a07c356661728dc422b9d460x5866cc8e111943942021-09-24 13:12:165 hrs 49 mins ago0xce96abbd4512f9d1bd38adcca6c80f6ec90908d4OUT 0x712e047aaa04725f8f6690207499906eb7bdb1eb0 BNB0.001006195
0xe8075ea1966cf1306308f7567404d0cb26d04249a8e6f22a31f8ad62f494945e0x5866cc8e111943772021-09-24 13:11:255 hrs 50 mins ago0xce96abbd4512f9d1bd38adcca6c80f6ec90908d4OUT 0x712e047aaa04725f8f6690207499906eb7bdb1eb0 BNB0.000241175
0xc0b31c5cc3400fcdf81c813d1446198165153e33f9e7b3333cf7fb3463c83f590x5866cc8e111935222021-09-24 12:28:256 hrs 33 mins ago0xce96abbd4512f9d1bd38adcca6c80f6ec90908d4OUT 0x712e047aaa04725f8f6690207499906eb7bdb1eb0 BNB0.000240515
0x31e02c70677bf543b2f52af75137b3eebd3b4e1199b0260faeb11fc8149fce140x5866cc8e111930112021-09-24 12:02:526 hrs 59 mins ago0xce96abbd4512f9d1bd38adcca6c80f6ec90908d4OUT 0x712e047aaa04725f8f6690207499906eb7bdb1eb0 BNB0.000533742
0x8e4814764a5b7172a1c16ece50953636e4193889ddd4e961ab44a517343bed800x5866cc8e111928502021-09-24 11:54:497 hrs 7 mins ago0xce96abbd4512f9d1bd38adcca6c80f6ec90908d4OUT 0x712e047aaa04725f8f6690207499906eb7bdb1eb0 BNB0.000249925
0x4bdfc70703b428abd05e6f91b498680284438c540089c342e9e80813a8ad18f50x5866cc8e111921842021-09-24 11:21:307 hrs 40 mins ago0xce96abbd4512f9d1bd38adcca6c80f6ec90908d4OUT 0x712e047aaa04725f8f6690207499906eb7bdb1eb0 BNB0.00033981
0xc30fff514493ae51fb2d888012fb1aab0f880f1dbdd7e8d826f575a2034a92ee0x5866cc8e111920432021-09-24 11:14:037 hrs 48 mins ago0xce96abbd4512f9d1bd38adcca6c80f6ec90908d4OUT 0x712e047aaa04725f8f6690207499906eb7bdb1eb0 BNB0.000216575
0x1b90b2fb9399166a156d79a68d8802767effb9deb95e67871f5c19d77a4c71620x5866cc8e111909462021-09-24 10:19:088 hrs 43 mins ago0xce96abbd4512f9d1bd38adcca6c80f6ec90908d4OUT 0x712e047aaa04725f8f6690207499906eb7bdb1eb0 BNB0.000240985
0x339ddcb1aa3f9a760760e558c49dfe395f3678afb77f9f998b5a567003f6ec2e0x5866cc8e111904012021-09-24 9:51:529 hrs 10 mins ago0xce96abbd4512f9d1bd38adcca6c80f6ec90908d4OUT 0x712e047aaa04725f8f6690207499906eb7bdb1eb0 BNB0.0002458761
0xfe3bc856eac2b180d62105bff52bd86ae68741f1bc554dcce7116c6885a13e4f0x5866cc8e111899772021-09-24 9:30:389 hrs 31 mins ago0xce96abbd4512f9d1bd38adcca6c80f6ec90908d4OUT 0x712e047aaa04725f8f6690207499906eb7bdb1eb0 BNB0.000207815
0x0257c015affbaeefacbd9d9b6d5deb409751a73a78d5b1b440a62b4ab1a9b08f0x5866cc8e111898082021-09-24 9:22:119 hrs 39 mins ago0xce96abbd4512f9d1bd38adcca6c80f6ec90908d4OUT 0x712e047aaa04725f8f6690207499906eb7bdb1eb0 BNB0.000427495
0x51d8591637c0169f8e5113f6b627b62ac58ccd814ea8c2651f21849142c274c60x5866cc8e111897322021-09-24 9:18:239 hrs 43 mins ago0xce96abbd4512f9d1bd38adcca6c80f6ec90908d4OUT 0x712e047aaa04725f8f6690207499906eb7bdb1eb0 BNB0.000283415
0x50239bd1acb1146d51ff9f6cf5c8a2f6fa877eebe5fd637b0b8e6f2a28b071660x5866cc8e111896422021-09-24 9:13:539 hrs 48 mins ago0xce96abbd4512f9d1bd38adcca6c80f6ec90908d4OUT 0x712e047aaa04725f8f6690207499906eb7bdb1eb0 BNB0.000264665
0x9d7b8256d38a9ed823c9f20aa9d98815bd5bc0c0de513760ad7c6f75720194b70x5866cc8e111895732021-09-24 9:10:259 hrs 51 mins ago0xce96abbd4512f9d1bd38adcca6c80f6ec90908d4OUT 0x712e047aaa04725f8f6690207499906eb7bdb1eb0 BNB0.000216625
0x98f69356fd7637a222eed223091731360bd1727a8d889b6b40b8c6c95145d5990x5866cc8e111852312021-09-24 5:32:5913 hrs 29 mins ago0xce96abbd4512f9d1bd38adcca6c80f6ec90908d4OUT 0x712e047aaa04725f8f6690207499906eb7bdb1eb0 BNB0.000533886
[ Download CSV Export 
Parent Txn Hash Block From To Value
Loading

Contract Name:
0 BNB

Compiler Version
0

Optimization Enabled:
0 BNB

Other Settings:
-NA-
Block Transaction Gas Used Reward
Age Block Fee Address BC Fee Address Voting Power Jailed Incoming
Block Uncle Number Difficulty Gas Used Reward
Loading
Loading
Make sure to use the "Vote Down" button for any spammy posts, and the "Vote Up" for interesting conversations.